#timestamp,LO_Frequency,Hit 
1501423215.7,286046983.9,N
1501423235.5,286046984.1,N
1501423255.3,286046988.1,N
1501423275.2,286046987.9,N
1501423295.9,286046984.8,N
1501423315.7,286046985.3,N
1501423335.5,286046983.7,N
1501423355.4,286046987.2,N
1501423375.2,286046986.3,N
1501423395.0,286046984.1,N
1501423395.9,286046984.1,N
1501423415.8,286046984.4,N
1501423435.6,286046982.6,N
1501423455.4,286046982.3,N
1501423475.3,286046982.9,N
1501423495.1,286046982.7,N
1501423496.0,286046982.7,N
1501423515.8,286046982.2,N
1501423535.7,286046984.7,N
1501423555.5,286046982.3,N
1501423575.3,286046982.4,N
1501423595.2,286046982.4,N
1501423615.9,286046982.8,N
1501423635.7,286046984.2,N
1501423655.6,286046982.6,N
1501423675.4,286046983.5,N
1501423695.2,286046980.5,N
1501423715.0,286046980.9,N
1501423715.9,286046980.9,N
1501423735.8,286046985.1,N
1501423755.6,286046983.2,N
1501423775.4,286046984.4,N
1501423795.3,286046982.5,N
1501423815.1,286046984.9,N
1501423835.8,286046983.0,N
1501423855.7,286046983.4,N
1501423875.5,286046983.0,N
1501423895.3,286046982.7,N
1501423915.2,286046984.8,N
1501423935.9,286046982.1,N
1501423955.7,286046982.8,N
1501423975.6,286046983.6,N
1501423995.4,286046983.5,N
1501424015.2,286046982.8,N
1501424035.0,286046981.0,N
1501424035.9,286046981.0,N
1501424055.8,286046978.9,N
1501424075.6,286046981.7,N
1501424095.4,286046983.3,N
1501424115.3,286046984.9,N
1501424135.1,286046982.7,N
1501424155.8,286046982.2,N
1501424175.7,286046984.5,N
1501424195.5,286046985.1,N
1501424215.3,286046984.5,N
1501424235.2,286046986.8,N
1501424255.9,286046986.6,N
1501424275.7,286046985.6,N
1501424295.6,286046986.0,N
1501424315.4,286046986.8,N
1501424335.2,286046986.4,N
1501424355.0,286046986.6,N
1501424355.9,286046986.6,N
1501424375.8,286046986.5,N
1501424395.6,286046986.6,N
1501424415.4,286046986.6,N
1501424435.3,286046984.2,N
1501424455.1,286046986.2,N
1501424456.0,286046986.2,N
1501424475.8,286046982.2,N
1501424495.7,286046984.7,N
1501424515.5,286046984.1,N
1501424535.3,286046982.4,N
1501424555.1,286046984.6,N
1501424575.9,286046984.9,N
1501424595.7,286046984.3,N
1501424615.5,286046982.6,N
1501424635.4,286046984.9,N
1501424655.2,286046984.2,N
1501424675.0,286046984.5,N
1501424675.9,286046984.5,N
1501424695.8,286046984.0,N
1501424715.6,286046984.8,N
1501424735.4,286046984.6,N
1501424755.3,286046984.2,N
1501424775.1,286046984.5,N
1501424776.0,286046984.5,N
1501424795.8,286046984.1,N
1501424815.6,286046984.8,N
1501424835.5,286046983.5,N
1501424855.3,286046981.0,Y
1501424875.1,286046993.3,N
1501424895.9,286046995.0,N
1501424915.7,286046995.6,N
1501424935.5,286046995.8,N
1501424955.4,286046993.3,N
1501424975.2,286046996.3,N
1501424995.0,286046995.2,N
1501424995.9,286046995.2,N
1501425015.8,286046995.3,N
1501425035.6,286046992.3,N
1501425055.4,286046992.5,N
1501425075.3,286046992.8,N
1501425095.1,286046990.2,N
1501425096.0,286046990.2,N
1501425115.8,286046992.3,N
1501425135.7,286046992.2,N
1501425155.5,286046992.7,N
1501425175.3,286046993.0,N
1501425195.1,286046992.2,N
1501425215.9,286046990.5,N
1501425235.7,286046990.4,N
1501425255.5,286046991.1,N
1501425275.4,286046991.0,N
1501425295.2,286046991.1,N
1501425315.0,286046990.6,N
1501425315.9,286046990.6,N
1501425335.8,286046991.1,N
1501425355.6,286046991.0,N
1501425375.4,286046991.3,N
1501425395.3,286046991.1,N
1501425415.1,286046989.7,N
1501425416.0,286046989.7,N
1501425435.8,286046988.7,N
1501425455.6,286046987.0,N
1501425475.5,286046987.5,N
1501425495.3,286046985.8,N
1501425515.1,286046985.3,N
1501425535.9,286046985.9,N
1501425555.7,286046986.1,N
1501425575.5,286046985.9,N
1501425595.4,286046986.2,N
1501425615.2,286046986.2,N
1501425635.0,286046983.8,N
1501425635.9,286046983.8,N
1501425655.8,286046984.5,N
1501425675.6,286046984.7,N
1501425695.4,286046985.2,N
1501425715.2,286046982.6,N
1501425735.1,286046982.5,N
1501425736.0,286046982.5,N
1501425755.8,286046982.4,N
1501425775.6,286046985.1,N
1501425795.5,286046982.2,N
1501425815.3,286046985.0,N
1501425835.1,286046983.9,N
1501425855.9,286046982.5,N
1501425875.7,286046982.7,N
1501425895.5,286046982.8,N
1501425915.4,286046982.9,N
1501425935.2,286046983.4,N
1501425955.0,286046983.4,N
1501425955.9,286046983.4,N
1501425975.8,286046982.5,N
1501425995.6,286046982.6,N
1501426015.4,286046984.8,N
1501426035.2,286046983.7,N
1501426055.1,286046984.3,N
1501426056.0,286046984.3,N
1501426075.8,286046984.5,N
1501426095.6,286046986.3,N
1501426115.5,286046982.2,Y
1501426135.3,286046999.6,N
1501426155.1,286046999.4,N
1501426175.9,286047000.6,N
1501426195.7,286047000.6,N
1501426215.5,286046998.4,N
1501426235.4,286046998.5,N
1501426255.2,286046999.5,N
1501426275.0,286046999.4,N
1501426275.9,286046999.4,N
1501426295.8,286046999.4,N
1501426315.6,286046998.1,N
1501426335.4,286046999.0,N
1501426355.2,286046999.6,N
1501426375.1,286046999.3,N
1501426376.0,286046999.3,N
1501426395.8,286047000.4,N
1501426415.6,286046999.2,N
1501426435.5,286047001.2,N
1501426455.3,286047000.9,N
1501426475.1,286047000.3,N
1501426495.9,286047001.1,N
1501426515.7,286046998.9,N
1501426535.5,286046997.0,N
1501426555.4,286046996.5,N
1501426575.2,286046996.6,N
1501426595.0,286046996.8,N
1501426595.9,286046996.8,N
1501426615.7,286046997.1,N
1501426635.6,286046994.9,N
1501426655.4,286046996.0,N
1501426675.2,286046995.0,N
1501426695.1,286046995.4,N
1501426696.0,286046995.4,N
1501426715.8,286046995.8,N
1501426735.6,286046996.3,N
1501426755.5,286046993.5,N
1501426775.3,286046994.0,N
1501426795.1,286046992.1,N
